Location: ???????
(55.4362°N, 38.1183°E)
Time: 17:09:45
(UTC+00:00)

IDEFIX/ARIANE 42P - Pass Details

Date: 17 June 2021
Orbit: 784 x 803 km, 98.4° (Epoch: 30 July)

Event Time Altitude Azimuth Distance (km) Brightness Sun altitude
Rises 23:13:19 0° 21° (NNE) 3,324 8.4 -8.1°
Reaches altitude 10° 23:16:03 10° 35° (NE) 2,386 6.7 -7.9°
Maximum altitude 23:20:26 26° 91° (E) 1,532 4.4 -7.6°
Drops below altitude 10° 23:24:46 10° 147° (SSE) 2,361 4.7 -7.4°
Sets 23:27:27 0° 160° (SSE) 3,282 5.4 -7.2°
